Time,TemperatureF,DewpointF,PressureIn,WindDirection,WindDirectionDegrees,WindSpeedMPH,WindSpeedGustMPH,Humidity,HourlyPrecipIn,Conditions,Clouds,dailyrainin,SoftwareType,DateUTC
2013-08-01 00:01:00,70.0,64.6,30.10,SW,222,0.0,0.0,83,0.00,,,0.00,meteobridge,2013-08-01 04:01:00,
2013-08-01 00:02:00,70.0,64.6,30.10,SW,222,0.0,0.0,83,0.00,,,0.00,meteobridge,2013-08-01 04:02:00,
2013-08-01 00:07:00,69.8,64.4,30.10,SW,222,0.0,0.0,83,0.00,,,0.00,meteobridge,2013-08-01 04:07:00,
2013-08-01 00:12:00,69.4,64.0,30.11,SW,222,0.0,0.0,83,0.00,,,0.00,meteobridge,2013-08-01 04:12:00,
2013-08-01 00:17:00,69.3,64.2,30.10,SW,222,0.0,0.0,84,0.00,,,0.00,meteobridge,2013-08-01 04:17:00,
2013-08-01 00:22:00,69.1,64.0,30.10,SW,222,0.0,0.0,84,0.00,,,0.00,meteobridge,2013-08-01 04:22:00,
2013-08-01 00:27:00,68.9,63.9,30.10,SW,222,0.0,0.0,84,0.00,,,0.00,meteobridge,2013-08-01 04:27:00,
2013-08-01 00:33:00,68.7,64.0,30.10,SW,222,0.0,0.0,85,0.00,,,0.00,meteobridge,2013-08-01 04:33:00,
2013-08-01 00:38:00,68.5,63.9,30.10,SW,222,0.0,0.0,85,0.00,,,0.00,meteobridge,2013-08-01 04:38:00,
2013-08-01 00:43:00,68.4,64.0,30.10,SW,222,0.0,0.0,86,0.00,,,0.00,meteobridge,2013-08-01 04:43:00,
2013-08-01 00:48:00,68.0,63.7,30.10,SW,222,0.0,0.0,86,0.00,,,0.00,meteobridge,2013-08-01 04:48:00,
2013-08-01 00:53:00,67.8,63.9,30.10,SW,222,0.0,0.0,87,0.00,,,0.00,meteobridge,2013-08-01 04:53:00,
2013-08-01 00:59:00,67.6,63.7,30.09,SW,222,0.0,0.0,87,0.00,,,0.00,meteobridge,2013-08-01 04:59:00,
2013-08-01 01:04:00,67.5,63.5,30.09,SW,222,0.0,0.0,87,0.00,,,0.00,meteobridge,2013-08-01 05:04:00,
2013-08-01 01:09:00,67.3,63.7,30.09,SW,222,0.0,0.0,88,0.00,,,0.00,meteobridge,2013-08-01 05:09:00,
2013-08-01 01:14:00,67.3,63.7,30.09,SW,222,0.0,0.0,88,0.00,,,0.00,meteobridge,2013-08-01 05:14:00,
2013-08-01 01:19:00,67.3,63.7,30.09,SW,222,0.0,0.0,88,0.00,,,0.00,meteobridge,2013-08-01 05:19:00,
2013-08-01 01:24:00,67.1,63.5,30.09,SW,222,0.0,0.0,88,0.00,,,0.00,meteobridge,2013-08-01 05:24:00,
2013-08-01 01:30:00,67.1,63.5,30.09,SW,222,0.0,0.0,88,0.00,,,0.00,meteobridge,2013-08-01 05:30:00,
2013-08-01 01:35:00,67.3,63.7,30.09,SW,222,0.0,0.0,88,0.00,,,0.00,meteobridge,2013-08-01 05:35:00,
2013-08-01 01:40:00,67.3,63.7,30.09,SW,222,0.0,0.0,88,0.00,,,0.00,meteobridge,2013-08-01 05:40:00,
2013-08-01 01:45:00,67.5,63.5,30.08,SW,222,0.0,0.0,87,0.00,,,0.00,meteobridge,2013-08-01 05:45:00,
2013-08-01 01:50:00,67.6,63.7,30.08,SW,222,0.0,2.0,87,0.00,,,0.00,meteobridge,2013-08-01 05:50:00,
2013-08-01 01:55:00,68.0,63.7,30.08,SW,221,0.0,0.0,86,0.00,,,0.00,meteobridge,2013-08-01 05:55:00,
2013-08-01 02:01:00,68.2,63.9,30.08,SW,221,0.0,0.0,86,0.00,,,0.00,meteobridge,2013-08-01 06:01:00,
2013-08-01 02:06:00,68.2,63.5,30.07,SW,221,0.0,0.0,85,0.00,,,0.00,meteobridge,2013-08-01 06:06:00,
2013-08-01 02:11:00,68.4,63.7,30.07,SW,221,0.0,0.9,85,0.00,,,0.00,meteobridge,2013-08-01 06:11:00,
2013-08-01 02:16:00,68.4,63.7,30.07,SW,221,0.0,0.9,85,0.00,,,0.00,meteobridge,2013-08-01 06:16:00,
2013-08-01 02:21:00,68.5,63.5,30.07,SW,221,0.0,0.0,84,0.00,,,0.00,meteobridge,2013-08-01 06:21:00,
2013-08-01 02:27:00,68.5,63.5,30.07,SW,221,0.0,0.0,84,0.00,,,0.00,meteobridge,2013-08-01 06:27:00,
2013-08-01 02:32:00,68.5,63.5,30.06,SW,221,0.0,0.0,84,0.00,,,0.00,meteobridge,2013-08-01 06:32:00,
2013-08-01 02:37:00,68.5,63.5,30.06,SW,221,0.0,0.0,84,0.00,,,0.00,meteobridge,2013-08-01 06:37:00,
2013-08-01 02:42:00,68.5,63.5,30.06,SW,221,0.0,0.0,84,0.00,,,0.00,meteobridge,2013-08-01 06:42:00,
2013-08-01 02:47:00,68.5,63.5,30.06,SW,221,0.0,0.0,84,0.00,,,0.00,meteobridge,2013-08-01 06:47:00,
2013-08-01 02:52:00,68.7,63.7,30.06,SW,221,0.0,0.0,84,0.00,,,0.00,meteobridge,2013-08-01 06:52:00,
2013-08-01 02:58:00,68.7,63.7,30.06,SW,221,0.0,0.0,84,0.00,,,0.00,meteobridge,2013-08-01 06:58:00,
2013-08-01 03:03:00,68.7,63.7,30.06,SW,221,0.0,2.0,84,0.00,,,0.00,meteobridge,2013-08-01 07:03:00,
2013-08-01 03:08:00,68.7,63.3,30.06,SW,221,0.0,0.0,83,0.00,,,0.00,meteobridge,2013-08-01 07:08:00,
2013-08-01 03:13:00,68.7,63.3,30.06,SW,221,0.0,0.0,83,0.00,,,0.00,meteobridge,2013-08-01 07:13:00,
2013-08-01 03:18:00,68.7,63.7,30.05,SW,221,0.0,0.0,84,0.00,,,0.00,meteobridge,2013-08-01 07:18:00,
2013-08-01 03:23:00,68.9,63.5,30.05,SW,221,0.0,0.0,83,0.00,,,0.00,meteobridge,2013-08-01 07:23:00,
2013-08-01 03:29:00,68.9,63.5,30.05,SW,221,0.0,2.0,83,0.00,,,0.00,meteobridge,2013-08-01 07:29:00,
2013-08-01 03:34:00,68.9,63.5,30.05,SW,221,0.0,0.0,83,0.00,,,0.00,meteobridge,2013-08-01 07:34:00,
2013-08-01 03:39:00,69.1,63.7,30.04,SW,217,0.0,0.0,83,0.00,,,0.00,meteobridge,2013-08-01 07:39:00,
2013-08-01 03:44:00,69.1,63.7,30.04,SW,217,0.0,0.0,83,0.00,,,0.00,meteobridge,2013-08-01 07:44:00,
2013-08-01 03:49:00,69.1,63.7,30.04,SW,217,0.0,0.0,83,0.00,,,0.00,meteobridge,2013-08-01 07:49:00,
2013-08-01 03:54:00,69.3,63.5,30.04,SW,217,0.0,0.9,82,0.00,,,0.00,meteobridge,2013-08-01 07:54:00,
2013-08-01 03:59:00,69.3,63.5,30.04,SW,217,0.0,2.0,82,0.00,,,0.00,meteobridge,2013-08-01 07:59:00,
2013-08-01 04:04:00,69.3,63.5,30.04,South,171,0.0,4.0,82,0.00,,,0.00,meteobridge,2013-08-01 08:04:00,
2013-08-01 04:10:00,69.3,63.5,30.04,South,171,0.0,0.0,82,0.00,,,0.00,meteobridge,2013-08-01 08:10:00,
2013-08-01 04:15:00,69.3,63.5,30.03,South,171,0.0,0.0,82,0.00,,,0.00,meteobridge,2013-08-01 08:15:00,
2013-08-01 04:20:00,69.3,63.5,30.03,South,171,0.0,0.9,82,0.00,,,0.00,meteobridge,2013-08-01 08:20:00,
2013-08-01 04:25:00,69.4,63.7,30.03,South,171,0.0,0.0,82,0.00,,,0.00,meteobridge,2013-08-01 08:25:00,
2013-08-01 04:30:00,69.4,63.7,30.03,South,171,0.0,0.0,82,0.00,,,0.00,meteobridge,2013-08-01 08:30:00,
2013-08-01 04:35:00,69.4,63.7,30.03,South,171,0.9,0.9,82,0.00,,,0.00,meteobridge,2013-08-01 08:35:00,
2013-08-01 04:41:00,69.4,63.7,30.04,South,171,0.0,0.0,82,0.00,,,0.00,meteobridge,2013-08-01 08:41:00,
2013-08-01 04:46:00,69.4,63.7,30.04,South,171,0.0,0.0,82,0.00,,,0.00,meteobridge,2013-08-01 08:46:00,
2013-08-01 04:51:00,69.4,63.7,30.04,South,171,0.0,2.0,82,0.00,,,0.00,meteobridge,2013-08-01 08:51:00,
2013-08-01 04:56:00,69.4,63.7,30.04,South,171,0.0,0.9,82,0.00,,,0.00,meteobridge,2013-08-01 08:56:00,
2013-08-01 05:01:00,69.4,63.7,30.03,South,171,0.0,0.9,82,0.00,,,0.00,meteobridge,2013-08-01 09:01:00,
2013-08-01 05:07:00,69.4,63.7,30.03,South,171,0.0,0.0,82,0.00,,,0.00,meteobridge,2013-08-01 09:07:00,
2013-08-01 05:12:00,69.4,63.7,30.03,South,171,0.0,0.0,82,0.00,,,0.00,meteobridge,2013-08-01 09:12:00,
2013-08-01 05:17:00,69.4,63.7,30.03,South,171,0.0,0.0,82,0.00,,,0.00,meteobridge,2013-08-01 09:17:00,
2013-08-01 05:22:00,69.3,63.5,30.03,South,171,0.0,0.0,82,0.00,,,0.00,meteobridge,2013-08-01 09:22:00,
2013-08-01 05:27:00,69.3,63.9,30.03,South,171,0.0,0.0,83,0.00,,,0.00,meteobridge,2013-08-01 09:27:00,
2013-08-01 05:32:00,69.3,63.9,30.03,South,171,0.0,0.0,83,0.00,,,0.00,meteobridge,2013-08-01 09:32:00,
2013-08-01 05:38:00,69.1,64.0,30.03,South,171,0.0,0.0,84,0.00,,,0.00,meteobridge,2013-08-01 09:38:00,
2013-08-01 05:43:00,68.7,63.7,30.03,South,171,0.0,0.0,84,0.00,,,0.00,meteobridge,2013-08-01 09:43:00,
2013-08-01 05:48:00,68.5,63.5,30.03,South,171,0.0,0.0,84,0.00,,,0.00,meteobridge,2013-08-01 09:48:00,
2013-08-01 05:53:00,68.4,63.7,30.03,South,171,0.0,0.0,85,0.00,,,0.00,meteobridge,2013-08-01 09:53:00,
2013-08-01 05:58:00,68.2,63.5,30.03,South,171,0.0,0.0,85,0.00,,,0.00,meteobridge,2013-08-01 09:58:00,
2013-08-01 06:04:00,68.2,63.5,30.03,South,171,0.0,0.0,85,0.00,,,0.00,meteobridge,2013-08-01 10:04:00,
2013-08-01 06:09:00,67.8,63.5,30.03,South,171,0.0,0.0,86,0.00,,,0.00,meteobridge,2013-08-01 10:09:00,
2013-08-01 06:14:00,67.8,63.9,30.03,South,171,0.0,0.0,87,0.00,,,0.00,meteobridge,2013-08-01 10:14:00,
2013-08-01 06:19:00,67.6,63.7,30.03,South,171,0.0,0.0,87,0.00,,,0.00,meteobridge,2013-08-01 10:19:00,
2013-08-01 06:25:00,67.6,63.7,30.03,South,171,0.0,0.0,87,0.00,,,0.00,meteobridge,2013-08-01 10:25:00,
2013-08-01 06:30:00,67.5,63.9,30.03,South,171,0.0,0.9,88,0.00,,,0.00,meteobridge,2013-08-01 10:30:00,
2013-08-01 06:35:00,67.5,64.0,30.03,South,171,0.0,0.0,89,0.00,,,0.00,meteobridge,2013-08-01 10:35:00,
2013-08-01 06:40:00,67.5,64.0,30.03,South,171,0.0,0.0,89,0.00,,,0.00,meteobridge,2013-08-01 10:40:00,
2013-08-01 06:46:00,67.5,64.0,30.03,South,172,0.0,0.0,89,0.00,,,0.00,meteobridge,2013-08-01 10:46:00,
2013-08-01 06:51:00,67.5,64.4,30.03,South,172,0.0,0.0,90,0.00,,,0.00,meteobridge,2013-08-01 10:51:00,
2013-08-01 06:56:00,67.6,64.6,30.03,South,172,0.0,0.0,90,0.00,,,0.00,meteobridge,2013-08-01 10:56:00,
2013-08-01 07:02:00,67.8,64.8,30.03,South,172,0.0,0.0,90,0.00,,,0.00,meteobridge,2013-08-01 11:02:00,
2013-08-01 07:07:00,68.0,64.9,30.03,South,172,0.0,0.0,90,0.00,,,0.00,meteobridge,2013-08-01 11:07:00,
2013-08-01 07:12:00,68.2,65.1,30.03,South,172,0.0,0.0,90,0.00,,,0.00,meteobridge,2013-08-01 11:12:00,
2013-08-01 07:17:00,68.5,65.5,30.03,South,172,0.0,0.9,90,0.00,,,0.00,meteobridge,2013-08-01 11:17:00,
2013-08-01 07:22:00,69.1,66.0,30.03,South,172,0.0,0.9,90,0.00,,,0.00,meteobridge,2013-08-01 11:22:00,
2013-08-01 07:27:00,69.4,66.4,30.03,South,171,0.0,0.9,90,0.00,,,0.00,meteobridge,2013-08-01 11:27:00,
2013-08-01 07:32:00,70.0,66.6,30.03,SE,134,0.9,0.9,89,0.00,,,0.00,meteobridge,2013-08-01 11:32:00,
2013-08-01 07:37:00,70.5,67.1,30.03,SSE,154,0.0,2.0,89,0.00,,,0.00,meteobridge,2013-08-01 11:37:00,
2013-08-01 07:42:00,71.2,67.5,30.03,WSW,251,2.0,4.0,88,0.00,,,0.00,meteobridge,2013-08-01 11:42:00,
2013-08-01 07:47:00,72.0,67.3,30.03,SSE,157,0.9,4.9,85,0.00,,,0.00,meteobridge,2013-08-01 11:47:00,
2013-08-01 07:53:00,72.7,67.6,30.03,SSE,159,0.9,2.0,84,0.00,,,0.00,meteobridge,2013-08-01 11:53:00,
2013-08-01 07:58:00,73.0,66.9,30.03,SSW,207,0.9,4.0,81,0.00,,,0.00,meteobridge,2013-08-01 11:58:00,
2013-08-01 08:03:00,73.4,67.3,30.03,SSE,165,0.0,8.1,81,0.00,,,0.00,meteobridge,2013-08-01 12:03:00,
2013-08-01 08:08:00,73.6,67.1,30.03,South,182,2.0,4.9,80,0.00,,,0.00,meteobridge,2013-08-01 12:08:00,
2013-08-01 08:13:00,73.8,66.9,30.03,SW,215,0.9,2.0,79,0.00,,,0.00,meteobridge,2013-08-01 12:13:00,
2013-08-01 08:18:00,73.8,66.4,30.03,SE,136,0.0,4.9,78,0.00,,,0.00,meteobridge,2013-08-01 12:18:00,
2013-08-01 08:23:00,73.9,66.2,30.03,SW,235,0.9,6.0,77,0.00,,,0.00,meteobridge,2013-08-01 12:23:00,
2013-08-01 08:29:00,74.1,66.7,30.02,SE,141,0.0,0.9,78,0.00,,,0.00,meteobridge,2013-08-01 12:29:00,
2013-08-01 08:34:00,74.1,66.7,30.02,SSW,208,0.9,4.0,78,0.00,,,0.00,meteobridge,2013-08-01 12:34:00,
2013-08-01 08:39:00,74.1,66.7,30.02,SW,225,0.0,2.9,78,0.00,,,0.00,meteobridge,2013-08-01 12:39:00,
2013-08-01 08:44:00,74.1,66.7,30.02,SW,228,0.9,2.0,78,0.00,,,0.00,meteobridge,2013-08-01 12:44:00,
2013-08-01 08:49:00,74.3,66.9,30.02,SW,233,0.0,2.9,78,0.00,,,0.00,meteobridge,2013-08-01 12:49:00,
2013-08-01 08:54:00,74.3,66.6,30.02,West,271,0.0,4.9,77,0.00,,,0.00,meteobridge,2013-08-01 12:54:00,
2013-08-01 08:59:00,74.1,66.7,30.02,SW,225,0.0,4.9,78,0.00,,,0.00,meteobridge,2013-08-01 12:59:00,
2013-08-01 09:04:00,73.9,67.1,30.02,SSW,213,0.9,8.9,79,0.00,,,0.00,meteobridge,2013-08-01 13:04:00,
2013-08-01 09:09:00,73.8,67.6,30.02,SSW,213,0.0,2.0,81,0.00,,,0.00,meteobridge,2013-08-01 13:09:00,
2013-08-01 09:14:00,73.8,67.6,30.02,WSW,244,2.0,4.0,81,0.00,,,0.00,meteobridge,2013-08-01 13:14:00,
2013-08-01 09:19:00,73.6,67.1,30.02,SW,225,0.0,6.9,80,0.00,,,0.00,meteobridge,2013-08-01 13:19:00,
2013-08-01 09:24:00,73.6,67.8,30.02,WSW,238,0.9,0.9,82,0.00,,,0.00,meteobridge,2013-08-01 13:24:00,
2013-08-01 09:30:00,73.6,68.2,30.02,WSW,240,0.0,4.9,83,0.00,,,0.00,meteobridge,2013-08-01 13:30:00,
2013-08-01 09:35:00,73.2,68.2,30.02,WSW,240,0.0,2.0,84,0.00,,,0.00,meteobridge,2013-08-01 13:35:00,
2013-08-01 09:40:00,72.9,68.0,30.02,WSW,240,0.0,0.9,85,0.01,,,0.01,meteobridge,2013-08-01 13:40:00,
2013-08-01 09:45:00,72.3,67.8,30.02,ESE,114,0.0,0.0,86,0.01,,,0.01,meteobridge,2013-08-01 13:45:00,
2013-08-01 09:51:00,72.1,68.4,30.02,West,262,0.0,0.0,88,0.03,,,0.03,meteobridge,2013-08-01 13:51:00,
2013-08-01 09:56:00,72.0,68.2,30.02,SSW,205,0.0,2.9,88,0.03,,,0.03,meteobridge,2013-08-01 13:56:00,
2013-08-01 10:01:00,71.6,68.5,30.02,SSW,205,0.0,0.0,90,0.03,,,0.03,meteobridge,2013-08-01 14:01:00,
2013-08-01 10:07:00,71.4,68.7,30.02,SSW,205,0.0,0.0,91,0.04,,,0.04,meteobridge,2013-08-01 14:07:00,
2013-08-01 10:12:00,71.2,68.5,30.02,SSW,205,0.0,0.9,91,0.04,,,0.04,meteobridge,2013-08-01 14:12:00,
2013-08-01 10:17:00,71.2,68.5,30.02,SSW,205,0.0,0.0,91,0.05,,,0.05,meteobridge,2013-08-01 14:17:00,
2013-08-01 10:22:00,71.1,68.5,30.02,SSW,205,0.9,0.9,92,0.06,,,0.06,meteobridge,2013-08-01 14:22:00,
2013-08-01 10:27:00,71.1,68.5,30.01,SSW,205,0.9,0.9,92,0.07,,,0.07,meteobridge,2013-08-01 14:27:00,
2013-08-01 10:33:00,70.9,68.7,30.01,SSW,205,0.0,2.0,93,0.08,,,0.08,meteobridge,2013-08-01 14:33:00,
2013-08-01 10:38:00,70.9,68.7,30.01,SSW,202,2.0,2.0,93,0.07,,,0.08,meteobridge,2013-08-01 14:38:00,
2013-08-01 10:43:00,70.9,68.7,30.01,South,180,0.0,2.0,93,0.07,,,0.08,meteobridge,2013-08-01 14:43:00,
2013-08-01 10:48:00,70.7,68.2,30.01,SSE,161,0.9,2.0,92,0.06,,,0.08,meteobridge,2013-08-01 14:48:00,
2013-08-01 10:53:00,70.5,68.0,30.01,South,188,0.9,6.0,92,0.05,,,0.08,meteobridge,2013-08-01 14:53:00,
2013-08-01 10:58:00,70.3,67.8,30.01,South,184,0.0,4.0,92,0.05,,,0.08,meteobridge,2013-08-01 14:58:00,
2013-08-01 11:04:00,70.3,67.6,30.01,South,181,0.0,2.0,91,0.04,,,0.08,meteobridge,2013-08-01 15:04:00,
2013-08-01 11:09:00,70.3,67.8,30.01,SSE,165,0.0,0.9,92,0.04,,,0.08,meteobridge,2013-08-01 15:09:00,
2013-08-01 11:14:00,70.5,68.0,30.01,SSE,159,4.0,4.9,92,0.03,,,0.08,meteobridge,2013-08-01 15:14:00,
2013-08-01 11:19:00,70.7,68.5,30.01,SSE,159,0.9,2.0,93,0.03,,,0.08,meteobridge,2013-08-01 15:19:00,
2013-08-01 11:24:00,70.7,68.5,30.01,SSW,203,0.0,0.9,93,0.01,,,0.08,meteobridge,2013-08-01 15:24:00,
2013-08-01 11:29:00,70.7,68.2,30.01,South,175,0.9,6.9,92,0.00,,,0.08,meteobridge,2013-08-01 15:29:00,
2013-08-01 11:34:00,70.7,68.2,30.01,WSW,250,0.9,0.9,92,0.02,,,0.10,meteobridge,2013-08-01 15:34:00,
2013-08-01 11:40:00,70.5,68.0,30.01,SE,126,0.9,2.0,92,0.05,,,0.13,meteobridge,2013-08-01 15:40:00,
2013-08-01 11:45:00,70.3,67.8,30.01,SE,130,8.1,8.1,92,0.06,,,0.14,meteobridge,2013-08-01 15:45:00,
2013-08-01 11:50:00,70.0,66.9,30.00,ESE,109,4.9,4.9,90,0.06,,,0.14,meteobridge,2013-08-01 15:50:00,
2013-08-01 11:56:00,69.4,66.7,30.00,South,179,0.9,8.1,91,0.06,,,0.14,meteobridge,2013-08-01 15:56:00,
2013-08-01 12:01:00,69.4,66.7,30.00,SW,220,2.0,4.0,91,0.06,,,0.14,meteobridge,2013-08-01 16:01:00,
2013-08-01 12:06:00,69.1,66.4,29.99,SE,136,0.9,6.0,91,0.06,,,0.14,meteobridge,2013-08-01 16:06:00,
2013-08-01 12:11:00,68.9,66.2,29.99,SE,138,0.0,0.0,91,0.06,,,0.14,meteobridge,2013-08-01 16:11:00,
2013-08-01 12:16:00,69.3,67.1,29.99,SE,142,0.0,0.0,93,0.06,,,0.14,meteobridge,2013-08-01 16:16:00,
2013-08-01 12:22:00,69.4,67.6,29.99,SE,142,2.0,2.0,94,0.06,,,0.14,meteobridge,2013-08-01 16:22:00,
2013-08-01 12:27:00,69.4,67.3,29.99,SE,146,0.0,2.0,93,0.06,,,0.14,meteobridge,2013-08-01 16:27:00,
2013-08-01 12:32:00,69.4,67.1,29.99,WSW,238,2.9,4.9,92,0.06,,,0.14,meteobridge,2013-08-01 16:32:00,
2013-08-01 12:37:00,69.3,66.9,29.99,SSW,204,0.0,4.9,92,0.01,,,0.14,meteobridge,2013-08-01 16:37:00,
2013-08-01 12:42:00,69.3,66.9,29.99,SSE,147,0.0,0.9,92,0.00,,,0.14,meteobridge,2013-08-01 16:42:00,
2013-08-01 12:47:00,69.4,67.1,29.99,SSE,148,0.0,2.0,92,0.00,,,0.14,meteobridge,2013-08-01 16:47:00,
2013-08-01 12:52:00,69.3,66.2,29.98,ESE,113,0.9,8.1,90,0.00,,,0.14,meteobridge,2013-08-01 16:52:00,
2013-08-01 12:58:00,69.1,66.0,29.99,ESE,115,0.0,4.0,90,0.00,,,0.14,meteobridge,2013-08-01 16:58:00,
2013-08-01 13:03:00,68.9,65.8,29.99,South,184,2.9,2.9,90,0.00,,,0.14,meteobridge,2013-08-01 17:03:00,
2013-08-01 13:08:00,68.9,65.8,29.99,SSE,165,0.0,4.0,90,0.01,,,0.15,meteobridge,2013-08-01 17:08:00,
2013-08-01 13:13:00,68.7,66.0,29.99,SSE,165,0.0,0.0,91,0.01,,,0.15,meteobridge,2013-08-01 17:13:00,
2013-08-01 13:18:00,68.9,66.2,29.99,SSE,165,0.0,0.0,91,0.01,,,0.15,meteobridge,2013-08-01 17:18:00,
2013-08-01 13:23:00,68.9,66.6,29.99,SSE,165,0.0,0.0,92,0.01,,,0.15,meteobridge,2013-08-01 17:23:00,
2013-08-01 13:29:00,68.9,66.6,29.99,SSE,165,0.0,0.0,92,0.02,,,0.16,meteobridge,2013-08-01 17:29:00,
2013-08-01 13:34:00,68.9,66.6,29.99,SSE,165,0.0,0.0,92,0.02,,,0.16,meteobridge,2013-08-01 17:34:00,
2013-08-01 13:39:00,68.7,66.6,29.98,SSE,165,0.0,0.0,93,0.02,,,0.16,meteobridge,2013-08-01 17:39:00,
2013-08-01 13:44:00,68.7,66.6,29.98,South,179,0.0,2.0,93,0.02,,,0.16,meteobridge,2013-08-01 17:44:00,
2013-08-01 13:50:00,68.7,66.6,29.98,South,179,0.9,0.9,93,0.05,,,0.19,meteobridge,2013-08-01 17:50:00,
2013-08-01 13:55:00,68.5,66.4,29.98,South,179,0.9,0.9,93,0.11,,,0.25,meteobridge,2013-08-01 17:55:00,
2013-08-01 14:00:00,68.5,66.7,29.98,South,179,0.0,0.9,94,0.12,,,0.26,meteobridge,2013-08-01 18:00:00,
2013-08-01 14:05:00,68.7,66.9,29.98,South,179,0.0,0.0,94,0.12,,,0.26,meteobridge,2013-08-01 18:05:00,
2013-08-01 14:11:00,68.7,67.3,29.97,South,175,0.0,2.0,95,0.11,,,0.26,meteobridge,2013-08-01 18:11:00,
2013-08-01 14:16:00,68.7,67.3,29.98,South,171,0.0,4.0,95,0.12,,,0.27,meteobridge,2013-08-01 18:16:00,
2013-08-01 14:21:00,68.9,67.5,29.97,SSW,198,2.9,8.1,95,0.13,,,0.28,meteobridge,2013-08-01 18:21:00,
2013-08-01 14:26:00,68.9,67.5,29.97,South,174,4.9,6.0,95,0.16,,,0.31,meteobridge,2013-08-01 18:26:00,
2013-08-01 14:31:00,68.7,66.9,29.97,SW,236,0.9,8.1,94,0.17,,,0.33,meteobridge,2013-08-01 18:31:00,
2013-08-01 14:37:00,68.5,66.7,29.97,SSW,198,4.0,6.0,94,0.18,,,0.34,meteobridge,2013-08-01 18:37:00,
2013-08-01 14:42:00,68.4,66.6,29.97,South,178,0.0,0.0,94,0.19,,,0.35,meteobridge,2013-08-01 18:42:00,
2013-08-01 14:47:00,68.4,66.6,29.96,SE,135,0.9,4.9,94,0.18,,,0.35,meteobridge,2013-08-01 18:47:00,
2013-08-01 14:52:00,68.2,66.7,29.96,SSE,159,0.0,4.9,95,0.11,,,0.36,meteobridge,2013-08-01 18:52:00,
2013-08-01 14:57:00,68.2,66.7,29.95,SSE,150,0.0,2.0,95,0.10,,,0.36,meteobridge,2013-08-01 18:57:00,
2013-08-01 15:02:00,68.2,66.7,29.95,SSW,211,2.9,4.0,95,0.10,,,0.36,meteobridge,2013-08-01 19:02:00,
2013-08-01 15:07:00,68.2,66.7,29.93,East,96,4.9,4.9,95,0.10,,,0.36,meteobridge,2013-08-01 19:07:00,
2013-08-01 15:12:00,68.4,66.9,29.93,South,178,2.0,8.1,95,0.09,,,0.36,meteobridge,2013-08-01 19:12:00,
2013-08-01 15:18:00,68.5,67.1,29.92,South,187,0.9,4.9,95,0.09,,,0.36,meteobridge,2013-08-01 19:18:00,
2013-08-01 15:23:00,68.9,67.6,29.92,WSW,255,4.0,8.1,96,0.05,,,0.36,meteobridge,2013-08-01 19:23:00,
2013-08-01 15:28:00,68.9,67.5,29.93,ESE,104,2.0,6.0,95,0.04,,,0.36,meteobridge,2013-08-01 19:28:00,
2013-08-01 15:33:00,68.7,66.9,29.93,NNW,339,2.0,4.0,94,0.04,,,0.37,meteobridge,2013-08-01 19:33:00,
2013-08-01 15:38:00,68.5,66.4,29.93,SE,136,0.9,6.0,93,0.02,,,0.37,meteobridge,2013-08-01 19:38:00,
2013-08-01 15:44:00,68.5,66.4,29.94,South,184,0.0,2.9,93,0.02,,,0.37,meteobridge,2013-08-01 19:44:00,
2013-08-01 15:49:00,68.5,66.4,29.94,South,185,0.9,0.9,93,0.02,,,0.38,meteobridge,2013-08-01 19:49:00,
2013-08-01 15:54:00,68.5,66.7,29.93,South,185,0.0,0.0,94,0.02,,,0.38,meteobridge,2013-08-01 19:54:00,
2013-08-01 15:59:00,68.5,66.7,29.93,South,185,0.9,0.9,94,0.03,,,0.39,meteobridge,2013-08-01 19:59:00,
2013-08-01 16:04:00,68.5,66.7,29.93,South,185,0.0,0.0,94,0.03,,,0.39,meteobridge,2013-08-01 20:04:00,
2013-08-01 16:10:00,68.5,66.7,29.93,South,185,0.0,0.0,94,0.03,,,0.39,meteobridge,2013-08-01 20:10:00,
2013-08-01 16:15:00,68.7,67.3,29.93,South,185,0.9,2.0,95,0.03,,,0.39,meteobridge,2013-08-01 20:15:00,
2013-08-01 16:20:00,68.7,67.3,29.93,SSW,206,0.0,0.0,95,0.04,,,0.40,meteobridge,2013-08-01 20:20:00,
2013-08-01 16:25:00,68.7,67.3,29.93,SSW,206,0.0,0.0,95,0.04,,,0.40,meteobridge,2013-08-01 20:25:00,
2013-08-01 16:30:00,68.9,67.5,29.93,SE,129,0.0,0.0,95,0.05,,,0.42,meteobridge,2013-08-01 20:30:00,
2013-08-01 16:35:00,69.1,67.8,29.93,SE,129,0.0,0.0,96,0.06,,,0.43,meteobridge,2013-08-01 20:35:00,
2013-08-01 16:40:00,69.1,67.8,29.93,SE,127,0.0,0.0,96,0.07,,,0.44,meteobridge,2013-08-01 20:40:00,
2013-08-01 16:42:00,69.1,67.8,29.94,NNE,18,0.9,2.9,96,0.07,,,0.44,meteobridge,2013-08-01 20:42:00,
2013-08-01 16:47:00,69.3,68.0,29.94,SW,232,0.0,6.0,96,0.08,,,0.46,meteobridge,2013-08-01 20:47:00,
2013-08-01 16:52:00,69.3,68.0,29.94,SW,234,0.9,4.0,96,0.09,,,0.47,meteobridge,2013-08-01 20:52:00,
2013-08-01 16:57:00,69.1,67.6,29.93,WSW,252,0.0,6.9,95,0.08,,,0.47,meteobridge,2013-08-01 20:57:00,
2013-08-01 17:02:00,69.1,67.6,29.93,WSW,246,0.9,6.0,95,0.08,,,0.47,meteobridge,2013-08-01 21:02:00,
2013-08-01 17:07:00,69.1,67.8,29.93,South,184,0.0,2.0,96,0.09,,,0.48,meteobridge,2013-08-01 21:07:00,
2013-08-01 17:12:00,69.1,67.8,29.93,East,101,0.0,8.9,96,0.09,,,0.48,meteobridge,2013-08-01 21:12:00,
2013-08-01 17:17:00,69.1,67.8,29.93,ESE,119,0.0,4.0,96,0.08,,,0.48,meteobridge,2013-08-01 21:17:00,
2013-08-01 17:23:00,69.1,67.8,29.93,ESE,119,0.0,0.9,96,0.08,,,0.48,meteobridge,2013-08-01 21:23:00,
2013-08-01 17:28:00,69.1,67.8,29.92,ESE,123,2.0,2.0,96,0.07,,,0.49,meteobridge,2013-08-01 21:28:00,
2013-08-01 17:33:00,69.3,68.0,29.93,SSE,148,0.0,2.0,96,0.06,,,0.49,meteobridge,2013-08-01 21:33:00,
2013-08-01 17:38:00,69.4,68.2,29.92,SSE,148,0.0,0.0,96,0.05,,,0.49,meteobridge,2013-08-01 21:38:00,
2013-08-01 17:44:00,69.4,68.2,29.92,SSE,148,0.0,0.0,96,0.04,,,0.49,meteobridge,2013-08-01 21:44:00,
2013-08-01 17:49:00,69.4,68.2,29.91,SSE,148,0.0,0.9,96,0.03,,,0.49,meteobridge,2013-08-01 21:49:00,
2013-08-01 17:54:00,69.4,68.2,29.91,SSE,148,0.0,0.0,96,0.02,,,0.49,meteobridge,2013-08-01 21:54:00,
2013-08-01 17:59:00,69.4,68.2,29.91,East,90,0.9,0.9,96,0.02,,,0.49,meteobridge,2013-08-01 21:59:00,
2013-08-01 18:04:00,69.6,68.4,29.91,East,92,0.9,2.0,96,0.01,,,0.49,meteobridge,2013-08-01 22:04:00,
2013-08-01 18:09:00,69.6,68.4,29.91,SE,140,6.9,6.9,96,0.01,,,0.49,meteobridge,2013-08-01 22:09:00,
2013-08-01 18:14:00,69.6,68.4,29.91,SSE,151,2.0,4.9,96,0.01,,,0.49,meteobridge,2013-08-01 22:14:00,
2013-08-01 18:19:00,69.6,68.4,29.91,SSE,166,0.9,4.0,96,0.01,,,0.49,meteobridge,2013-08-01 22:19:00,
2013-08-01 18:25:00,69.6,68.4,29.91,SSW,203,2.0,6.9,96,0.01,,,0.49,meteobridge,2013-08-01 22:25:00,
2013-08-01 18:30:00,69.6,68.4,29.91,SE,146,0.9,2.0,96,0.00,,,0.49,meteobridge,2013-08-01 22:30:00,
2013-08-01 18:35:00,69.6,68.4,29.91,South,185,0.0,4.9,96,0.00,,,0.49,meteobridge,2013-08-01 22:35:00,
2013-08-01 18:40:00,69.8,68.5,29.91,South,175,4.9,6.9,96,0.00,,,0.49,meteobridge,2013-08-01 22:40:00,
2013-08-01 18:45:00,69.8,68.5,29.91,SE,139,4.9,4.9,96,0.00,,,0.49,meteobridge,2013-08-01 22:45:00,
2013-08-01 18:51:00,70.0,68.7,29.91,ESE,110,0.0,4.9,96,0.00,,,0.49,meteobridge,2013-08-01 22:51:00,
2013-08-01 18:56:00,69.8,68.5,29.91,SW,226,0.9,6.9,96,0.00,,,0.49,meteobridge,2013-08-01 22:56:00,
2013-08-01 19:01:00,70.0,68.7,29.91,South,180,2.0,4.0,96,0.00,,,0.49,meteobridge,2013-08-01 23:01:00,
2013-08-01 19:06:00,70.0,68.7,29.92,SW,219,0.0,2.0,96,0.00,,,0.49,meteobridge,2013-08-01 23:06:00,
2013-08-01 19:11:00,70.0,68.7,29.92,SE,136,2.0,4.0,96,0.00,,,0.49,meteobridge,2013-08-01 23:11:00,
2013-08-01 19:17:00,69.8,68.5,29.92,SSE,148,0.0,2.0,96,0.01,,,0.50,meteobridge,2013-08-01 23:17:00,
2013-08-01 19:22:00,69.8,68.5,29.92,SE,135,2.0,4.0,96,0.06,,,0.55,meteobridge,2013-08-01 23:22:00,
2013-08-01 19:27:00,69.6,68.4,29.92,SSE,160,0.0,4.0,96,0.07,,,0.56,meteobridge,2013-08-01 23:27:00,
2013-08-01 19:32:00,69.6,68.4,29.91,SE,144,0.0,0.9,96,0.07,,,0.56,meteobridge,2013-08-01 23:32:00,
2013-08-01 19:37:00,69.6,68.7,29.92,SSE,150,0.0,4.0,97,0.07,,,0.56,meteobridge,2013-08-01 23:37:00,
2013-08-01 19:42:00,69.6,68.7,29.92,SSE,150,0.9,2.0,97,0.07,,,0.56,meteobridge,2013-08-01 23:42:00,
2013-08-01 19:48:00,69.6,68.7,29.93,NNE,15,0.0,0.0,97,0.08,,,0.57,meteobridge,2013-08-01 23:48:00,
2013-08-01 19:53:00,69.6,68.7,29.93,NNE,15,0.0,0.0,97,0.09,,,0.58,meteobridge,2013-08-01 23:53:00,
2013-08-01 19:58:00,69.6,68.7,29.93,NNE,15,0.9,0.9,97,0.09,,,0.58,meteobridge,2013-08-01 23:58:00,
2013-08-01 20:03:00,69.6,68.7,29.93,NNE,15,0.0,0.9,97,0.09,,,0.58,meteobridge,2013-08-02 00:03:00,
2013-08-01 20:08:00,69.6,68.7,29.93,NNE,15,0.0,0.9,97,0.09,,,0.58,meteobridge,2013-08-02 00:08:00,
2013-08-01 20:13:00,69.6,68.7,29.93,NNE,15,0.0,0.0,97,0.09,,,0.58,meteobridge,2013-08-02 00:13:00,
2013-08-01 20:19:00,69.6,68.7,29.93,NNE,15,0.0,0.0,97,0.04,,,0.59,meteobridge,2013-08-02 00:19:00,
2013-08-01 20:24:00,69.6,68.7,29.93,NNE,15,0.0,0.0,97,0.05,,,0.61,meteobridge,2013-08-02 00:24:00,
2013-08-01 20:29:00,69.4,68.5,29.92,NNE,15,0.0,0.0,97,0.08,,,0.64,meteobridge,2013-08-02 00:29:00,
2013-08-01 20:34:00,69.4,68.5,29.93,NNE,15,0.0,0.0,97,0.09,,,0.65,meteobridge,2013-08-02 00:34:00,
2013-08-01 20:39:00,69.4,68.5,29.93,NNE,15,0.0,2.0,97,0.09,,,0.65,meteobridge,2013-08-02 00:39:00,
2013-08-01 20:44:00,69.6,68.7,29.92,SSW,205,0.0,0.0,97,0.09,,,0.65,meteobridge,2013-08-02 00:44:00,
2013-08-01 20:49:00,69.6,68.7,29.92,South,180,0.0,0.0,97,0.07,,,0.65,meteobridge,2013-08-02 00:49:00,
2013-08-01 20:54:00,69.6,68.7,29.92,South,188,0.0,2.9,97,0.07,,,0.65,meteobridge,2013-08-02 00:54:00,
2013-08-01 20:59:00,69.6,68.7,29.92,South,188,0.9,2.0,97,0.08,,,0.66,meteobridge,2013-08-02 00:59:00,
2013-08-01 21:05:00,69.4,68.5,29.92,South,188,2.0,6.9,97,0.08,,,0.66,meteobridge,2013-08-02 01:05:00,
2013-08-01 21:10:00,69.4,68.5,29.92,WSW,251,0.0,4.9,97,0.08,,,0.66,meteobridge,2013-08-02 01:10:00,
2013-08-01 21:15:00,69.4,68.5,29.91,ESE,107,0.9,4.9,97,0.07,,,0.66,meteobridge,2013-08-02 01:15:00,
2013-08-01 21:20:00,69.4,68.5,29.91,South,184,2.9,2.9,97,0.06,,,0.66,meteobridge,2013-08-02 01:20:00,
2013-08-01 21:25:00,69.4,68.5,29.91,SSW,211,0.0,2.0,97,0.04,,,0.66,meteobridge,2013-08-02 01:25:00,
2013-08-01 21:30:00,69.4,68.5,29.91,SSW,211,0.9,2.0,97,0.01,,,0.66,meteobridge,2013-08-02 01:30:00,
2013-08-01 21:35:00,69.4,68.5,29.91,SSW,209,0.0,0.0,97,0.01,,,0.66,meteobridge,2013-08-02 01:35:00,
2013-08-01 21:40:00,69.4,68.5,29.91,SSW,209,0.0,0.0,97,0.01,,,0.66,meteobridge,2013-08-02 01:40:00,
2013-08-01 21:46:00,69.3,68.4,29.91,SSW,209,0.0,0.0,97,0.01,,,0.66,meteobridge,2013-08-02 01:46:00,
2013-08-01 21:51:00,69.3,68.4,29.91,SSW,209,0.0,0.0,97,0.01,,,0.66,meteobridge,2013-08-02 01:51:00,
2013-08-01 21:56:00,69.3,68.4,29.91,SSW,209,0.0,0.9,97,0.02,,,0.67,meteobridge,2013-08-02 01:56:00,
2013-08-01 22:01:00,69.3,68.4,29.91,SSW,209,0.0,0.0,97,0.01,,,0.67,meteobridge,2013-08-02 02:01:00,
2013-08-01 22:06:00,69.3,68.4,29.91,SSW,209,0.0,0.0,97,0.01,,,0.67,meteobridge,2013-08-02 02:06:00,
2013-08-01 22:11:00,69.1,68.2,29.90,SSW,209,0.0,0.0,97,0.01,,,0.67,meteobridge,2013-08-02 02:11:00,
2013-08-01 22:16:00,69.1,68.2,29.90,SSW,209,0.0,0.0,97,0.01,,,0.67,meteobridge,2013-08-02 02:16:00,
2013-08-01 22:22:00,69.1,68.2,29.90,SSW,209,0.0,0.0,97,0.01,,,0.67,meteobridge,2013-08-02 02:22:00,
2013-08-01 22:27:00,68.9,68.0,29.89,SSW,209,0.0,0.0,97,0.01,,,0.67,meteobridge,2013-08-02 02:27:00,
2013-08-01 22:32:00,68.9,68.0,29.89,SSW,209,0.0,0.0,97,0.01,,,0.67,meteobridge,2013-08-02 02:32:00,
2013-08-01 22:37:00,68.7,67.8,29.90,SSW,209,0.0,0.0,97,0.01,,,0.67,meteobridge,2013-08-02 02:37:00,
2013-08-01 22:42:00,68.7,67.8,29.90,SSW,209,0.0,0.0,97,0.01,,,0.67,meteobridge,2013-08-02 02:42:00,
2013-08-01 22:47:00,68.7,67.8,29.90,SSW,209,0.0,0.0,97,0.01,,,0.67,meteobridge,2013-08-02 02:47:00,
2013-08-01 22:52:00,68.7,67.8,29.90,SSW,209,0.0,0.0,97,0.00,,,0.67,meteobridge,2013-08-02 02:52:00,
2013-08-01 22:57:00,68.7,67.8,29.90,SSW,209,0.0,0.0,97,0.00,,,0.67,meteobridge,2013-08-02 02:57:00,
2013-08-01 23:03:00,68.7,67.8,29.90,SSW,209,0.0,0.0,97,0.00,,,0.67,meteobridge,2013-08-02 03:03:00,
2013-08-01 23:08:00,68.5,67.6,29.90,SSW,209,0.0,0.0,97,0.00,,,0.67,meteobridge,2013-08-02 03:08:00,
2013-08-01 23:13:00,68.5,67.6,29.90,SSW,209,0.0,0.0,97,0.00,,,0.67,meteobridge,2013-08-02 03:13:00,
2013-08-01 23:18:00,68.5,67.6,29.90,SSW,209,0.0,0.0,97,0.00,,,0.67,meteobridge,2013-08-02 03:18:00,
2013-08-01 23:24:00,68.4,67.5,29.90,SSW,209,0.0,0.0,97,0.00,,,0.67,meteobridge,2013-08-02 03:24:00,
2013-08-01 23:29:00,68.4,67.5,29.90,SSW,209,0.0,0.0,97,0.00,,,0.67,meteobridge,2013-08-02 03:29:00,
2013-08-01 23:34:00,68.4,67.5,29.90,SSW,209,0.0,0.0,97,0.00,,,0.67,meteobridge,2013-08-02 03:34:00,
2013-08-01 23:39:00,68.5,67.6,29.90,SSW,209,0.0,0.0,97,0.00,,,0.67,meteobridge,2013-08-02 03:39:00,
2013-08-01 23:45:00,68.5,68.0,29.90,SSW,209,0.0,0.0,98,0.00,,,0.67,meteobridge,2013-08-02 03:45:00,
2013-08-01 23:50:00,68.5,68.0,29.90,SSW,209,0.0,0.0,98,0.00,,,0.67,meteobridge,2013-08-02 03:50:00,
2013-08-01 23:55:00,68.5,68.0,29.90,SSW,209,0.0,0.0,98,0.00,,,0.67,meteobridge,2013-08-02 03:55:00,